Simultaneous Nadir Overpasses (SNOs) Predictions

Prediction of SNOs between AQUA and NOAA-19 Satellite Orbit:

Table of predicted SNOs for the next 14.0 days since TLE Epoch: 12/14/2012
Index Date (AQUA) Time (AQUA) Lat,Lon (AQUA) SZA (AQUA ) Date (NOAA-19) Time (NOAA-19) Lat,Lon (NOAA-19) SZA (NOAA-19 ) Distance(km) Time Diff (sec)
1 12/16/2012 14:38:51 -46.16, -7.29 35.20 12/16/2012 14:38:53 -46.04, -6.78 35.46 41.14 2
2 12/16/2012 15:13:45 77.56, -65.23 101.27 12/16/2012 15:14:58 77.08, -67.74 100.94 81.31 73
3 12/18/2012 19:23:03 -46.70, -78.17 35.34 12/18/2012 19:23:14 -46.59, -77.68 35.62 39.42 11
4 12/18/2012 19:48:47 46.10,-101.96 70.85 12/18/2012 19:49:49 45.88,-103.01 70.49 85.27 62
5 12/20/2012 23:18:06 46.02, 42.86 145.30 12/20/2012 23:16:57 45.87, 43.66 145.05 64.17 69
6 12/21/2012 00:07:16 -47.19,-149.07 35.50 12/21/2012 00:07:36 -47.08,-148.60 35.77 37.87 20
7 12/21/2012 00:33:08 46.08,-173.03 70.80 12/21/2012 00:34:20 45.89,-174.14 70.48 87.66 72
8 12/23/2012 04:02:28 46.00, -28.24 145.47 12/23/2012 04:01:28 45.84, -27.47 145.22 61.96 60
9 12/23/2012 04:51:29 -47.71, 140.04 35.71 12/23/2012 04:51:57 -47.63, 140.51 36.01 36.33 28
10 12/25/2012 08:46:50 46.00, -99.33 145.59 12/25/2012 08:45:58 45.87, -98.58 145.33 59.86 52
11 12/25/2012 09:35:42 -48.19, 69.14 35.92 12/25/2012 09:36:18 -48.12, 69.60 36.24 35.02 36
12 12/27/2012 13:31:11 46.03,-170.41 145.68 12/27/2012 13:30:27 45.90,-169.68 145.41 57.90 44




NCC Satellite Simultaneous Nadir Overpasses (SNOs) Prediction Service
